This demonstration page uses our WeatherBlox Daily Observations layout. Learn more.

Left ArrowRight Arrow

Hourly Observations for October 16, 2018

Temp ( °F °C ) Dew Point ( °F °C ) Humidity (%) Winds ( mph kmh ) Pressure ( in mb ) Visibility ( mi km ) Precip ( " mm )
12:57 am 00:57 Clear 34 1.1 24 -4.4 67 67 WSW 10 17 30.29 1026 10 16 0.00 0.00
1:57 am 01:57 Clear 34 1.1 23 -5 64 64 WSW 8 13 30.27 1025 10 16 0.00 0.00
2:57 am 02:57 Clear 33 0.6 23 -5 66 66 WSW 8 13 30.27 1025 10 16 0.00 0.00
3:57 am 03:57 Clear 34 1.1 24 -4.4 67 67 WSW 9 15 30.26 1025 10 16 0.00 0.00
4:57 am 04:57 Clear 36 2.2 25 -3.9 64 64 W 7 11 30.24 1024 10 16 0.00 0.00
5:57 am 05:57 Clear 37 2.8 25 -3.9 62 62 W 8 13 30.25 1024 10 16 0.00 0.00
6:57 am 06:57 Clear 33 0.6 26 -3.3 75 75 NW 6 9 30.27 1025 10 16 0.00 0.00
7:57 am 07:57 Sunny 33 0.6 27 -2.8 78 78 WNW 7 11 30.28 1025 10 16 0.00 0.00
8:57 am 08:57 Sunny 38 3.3 29 -1.7 70 70 WNW 9 15 30.29 1026 10 16 0.00 0.00
9:57 am 09:57 Sunny 44 6.7 31 -0.6 60 60 WNW 10 17 30.29 1026 10 16 0.00 0.00
10:57 am 10:57 Sunny 53 11.7 34 1.1 48 48 W 8 13 30.29 1026 10 16 0.00 0.00
11:57 am 11:57 Sunny 60 15.6 35 1.7 39 39 NW 7 11 30.27 1025 10 16 0.00 0.00
12:57 pm 12:57 Sunny 64 17.8 36 2.2 35 35 NW 9 15 30.26 1025 10 16 0.00 0.00
1:57 pm 13:57 Sunny 65 18.3 35 1.7 33 33 NW 13 20 30.24 1024 10 16 0.00 0.00
2:57 pm 14:57 Sunny 67 19.4 36 2.2 32 32 NW 16 26 30.21 1023 10 16 0.00 0.00
3:57 pm 15:57 Sunny 68 20 36 2.2 31 31 NNW 13 20 30.20 1023 10 16 0.00 0.00
4:57 pm 16:57 Sunny 68 20 36 2.2 31 31 NNW 15 24 30.19 1022 10 16 0.00 0.00
5:57 pm 17:57 Sunny 66 18.9 35 1.7 32 32 N 13 20 30.20 1023 10 16 0.00 0.00
6:57 pm 18:57 Clear 59 15 37 2.8 44 44 N 8 13 30.24 1024 10 16 0.00 0.00
7:57 pm 19:57 Clear 53 11.7 37 2.8 55 55 NW 6 9 30.28 1025 10 16 0.00 0.00
8:57 pm 20:57 Clear 48 8.9 36 2.2 63 63 NW 7 11 30.31 1026 10 16 0.00 0.00
9:57 pm 21:57 Clear 47 8.3 36 2.2 66 66 WNW 9 15 30.33 1027 10 16 0.00 0.00
10:57 pm 22:57 Clear 45 7.2 36 2.2 71 71 NW 8 13 30.34 1028 10 16 0.00 0.00

Powered by AerisWeather